This is the latest recevied weather packets stored in our database for station/object IZ1UQG-2. If no packets are shown the sender has not sent any weather packets the latest 10 day(s).
| Time | Temp. | Humidity | Pressure | Rain* | Wind** | Luminosity | Snow |
|---|---|---|---|---|---|---|---|
| 1777838705 | 17.22° C | 57% | 1015.2 hPa | 0 mm | - | 0 W/m² | - |
| 1777838284 | 17.22° C | 57% | 1015.3 hPa | 0 mm | - | 0 W/m² | - |
| 1777837565 | 17.78° C | 56% | 1015 hPa | 0 mm | - | 0 W/m² | - |
| 1777837024 | 17.78° C | 56% | 1015 hPa | 0 mm | - | 0 W/m² | - |
| 1777836664 | 17.78° C | 56% | 1015 hPa | 0 mm | - | 0 W/m² | - |
| 1777836424 | 17.78° C | 56% | 1014.9 hPa | 0 mm | - | 0 W/m² | - |
| 1777836184 | 17.78° C | 57% | 1014.9 hPa | 0 mm | - | 0 W/m² | - |
| 1777836134 | 17.78° C | 57% | 1014.9 hPa | 0 mm | - | 0 W/m² | - |
| 1777835045 | 18.89° C | 55% | 1014.6 hPa | 0 mm | - | 0 W/m² | - |
| 1777834624 | 19.44° C | 55% | 1014.5 hPa | 0 mm | - | 0 W/m² | - |
| 1777834324 | 19.44° C | 53% | 1014.5 hPa | 0 mm | - | 0 W/m² | - |
| 1777833965 | 19.44° C | 52% | 1014.2 hPa | 0 mm | - | 0 W/m² | - |
| 1777833545 | 19.44° C | 51% | 1014.3 hPa | 0 mm | - | 0 W/m² | - |
| 1777833064 | 19.44° C | 52% | 1014.2 hPa | 0 mm | - | 5 W/m² | - |
| 1777833007 | 20° C | 52% | 1014.2 hPa | 0 mm | - | 5 W/m² | - |
| 1777832705 | 20° C | 51% | 1014.4 hPa | 0 mm | - | 9 W/m² | - |
| 1777832524 | 20° C | 51% | 1014.3 hPa | 0 mm | - | 12 W/m² | - |
| 1777832406 | 20° C | 51% | 1014.3 hPa | 0 mm | - | 14 W/m² | - |
| 1777832165 | 20° C | 52% | 1014.3 hPa | 0 mm | - | 18 W/m² | - |
| 1777832106 | 20° C | 53% | 1014.3 hPa | 0 mm | - | 19 W/m² | - |
| 1777831448 | 20.56° C | 50% | 1014.4 hPa | 0 mm | - | 28 W/m² | - |
| 1777831025 | 20.56° C | 50% | 1014.3 hPa | 0 mm | - | 35 W/m² | - |
| 1777830185 | 21.11° C | 49% | 1014.1 hPa | 0 mm | - | 54 W/m² | - |
| 1777830065 | 21.11° C | 49% | 1014.2 hPa | 0 mm | - | 56 W/m² | - |
| 1777829888 | 21.11° C | 48% | 1014.1 hPa | 0 mm | - | 58 W/m² | - |
* Rain latest hour (hover to see other rain measurements)
** Current wind speed in m/s (hover to see current wind gust speed)